This is the latest recevied weather packets stored in our database for station/object KF0FSA. If no packets are shown the sender has not sent any weather packets the latest 10 day(s).
| Time | Temp. | Humidity | Pressure | Rain* | Wind** | Luminosity | Snow |
|---|---|---|---|---|---|---|---|
| 1777704407 | 1.67° C | 76% | 966.9 hPa | 0 mm | - | 0 W/m² | - |
| 1777704106 | 1.67° C | 76% | 966.8 hPa | 0 mm | - | 0 W/m² | - |
| 1777703931 | 1.67° C | 76% | 966.8 hPa | 0 mm | - | 0 W/m² | - |
| 1777703506 | 1.67° C | 76% | 966.9 hPa | 0 mm | - | 0 W/m² | - |
| 1777703207 | 1.11° C | 77% | 966.9 hPa | 0 mm | - | 0 W/m² | - |
| 1777702907 | 1.11° C | 77% | 966.9 hPa | 0 mm | - | 0 W/m² | - |
| 1777702607 | 1.67° C | 75% | 966.9 hPa | 0 mm | - | 0 W/m² | - |
| 1777702307 | 1.67° C | 75% | 966.9 hPa | 0 mm | - | 0 W/m² | - |
| 1777702006 | 1.67° C | 74% | 966.9 hPa | 0 mm | - | 0 W/m² | - |
| 1777701710 | 1.67° C | 74% | 966.9 hPa | 0 mm | - | 0 W/m² | - |
| 1777701407 | 2.22° C | 73% | 966.9 hPa | 0 mm | - | 0 W/m² | - |
| 1777701120 | 2.78° C | 72% | 966.9 hPa | 0 mm | - | 0 W/m² | - |
| 1777700808 | 2.78° C | 72% | 966.7 hPa | 0 mm | - | 0 W/m² | - |
| 1777700504 | 2.22° C | 79% | 966.7 hPa | 0 mm | - | 0 W/m² | - |
| 1777700205 | 2.78° C | 78% | 966.7 hPa | 0 mm | - | 0 W/m² | - |
| 1777699905 | 2.22° C | 79% | 966.7 hPa | 0 mm | - | 0 W/m² | - |
| 1777699604 | 2.78° C | 77% | 966.7 hPa | 0 mm | - | 0 W/m² | - |
| 1777699305 | 2.78° C | 78% | 966.7 hPa | 0 mm | - | 0 W/m² | - |
| 1777699005 | 2.78° C | 78% | 966.7 hPa | 0 mm | - | 0 W/m² | - |
| 1777698828 | 2.78° C | 76% | 966.8 hPa | 0 mm | - | 0 W/m² | - |
| 1777698405 | 2.78° C | 75% | 966.7 hPa | 0 mm | - | 0 W/m² | - |
| 1777698106 | 2.78° C | 74% | 966.8 hPa | 0 mm | - | 0 W/m² | - |
| 1777697804 | 2.78° C | 72% | 966.8 hPa | 0 mm | - | 0 W/m² | - |
| 1777697505 | 2.78° C | 72% | 966.8 hPa | 0 mm | - | 0 W/m² | - |
| 1777697205 | 2.78° C | 72% | 966.9 hPa | 0 mm | - | 0 W/m² | - |
* Rain latest hour (hover to see other rain measurements)
** Current wind speed in m/s (hover to see current wind gust speed)